Find Kosmos-2116

NORAD ID: 21030 Int'l Des: 1990-114 Owner: UNKS Country: SU operational
LEOCIRCULARPOLAR

リアルタイム位置

3D地球を読み込み中...

Kosmos-2116について

説明を読み込み中...

次回通過

Passes for default location (London). Set your location on the main map for personalized predictions.

高度履歴

Loading altitude history...

軌道要素

1 21030U 90114C 26105.88648360 .00000010 00000-0 -36788-5 0 9997
2 21030 82.5727 246.8663 0003934 237.2540 291.8260 12.64322513629550
Epoch: Apr 15, 2026 • Age: 14 hours

現在のステータス

高度 1409.3 km
速度 7.16 km/s
衛星直下点 7.86°N, 131.41°W
打ち上げ日 Dec 22, 1990
運用期間 35.3 years
タイプ other

技術仕様

分類 Payload
質量 225.00 kg
乾燥質量 225.00 kg
総質量 225.00 kg
長さ 1.60 m
直径 0.80 m
スパン 7.00 m
形状 Cyl + Ant
製造者 NPOPM
バスタイプ Strela-3
フェーズステータス In Orbit
所有者/国 UNKS/SU

Most Searched